Location: Killam
(52.7910°N, 111.8608°W)
Time: 13:24:55
(UTC+00:00)

Oscar 11 - Pass Details

Date: 21 March 2026
Orbit: 590 x 602 km, 97.8° (Epoch: 18 April)

Event Time Altitude Azimuth Distance (km) Brightness Sun altitude
Rises 10:35:41 0° 19° (NNE) 2,840 11.4 -24.9°
Reaches altitude 10° 10:37:59 10° 28° (NNE) 1,933 10.5 -24.6°
Maximum altitude 10:41:55 38° 97° (E) 908 8.2 -24.2°
Enters shadow 10:43:28 28° 143° (SE) 1,130 8.3 -24.0°
